| time (UTC) | temp F | wind direction | speed knots | gust knots | rain 1hr in | rain 24hr in | rain mn in | humidity % | barometer mb |
| 20260506184140 | 62 | 200 | 0.0 | 14.8 | 0.00 | 0.24 | 0.24 | 89 | 1006.2 |
| 20260506183140 | 62 | 194 | 0.0 | 7.8 | 0.00 | 0.24 | 0.24 | 89 | 1006.2 |
| 20260506182140 | 62 | 199 | 1.7 | 12.2 | 0.00 | 0.24 | 0.24 | 89 | 1006.1 |
| 20260506181140 | 62 | 222 | 0.0 | 11.3 | 0.00 | 0.24 | 0.24 | 89 | 1006.2 |
| 20260506180141 | 62 | 196 | 0.0 | 12.2 | 0.00 | 0.24 | 0.24 | 89 | 1006.2 |
| 20260506175140 | 62 | 197 | 0.0 | 15.6 | 0.00 | 0.24 | 0.24 | 90 | 1006.3 |
| 20260506174141 | 62 | 219 | 6.1 | 10.4 | 0.00 | 0.24 | 0.24 | 90 | 1006.4 |
| 20260506173140 | 62 | 184 | 0.0 | 10.4 | 0.01 | 0.24 | 0.24 | 90 | 1006.2 |
| 20260506172140 | 62 | 160 | 3.5 | 8.7 | 0.01 | 0.24 | 0.24 | 90 | 1006.5 |
| 20260506171140 | 62 | 240 | 1.7 | 12.2 | 0.02 | 0.24 | 0.24 | 90 | 1006.6 |
| 20260506165140 | 62 | 196 | 5.2 | 7.8 | 0.05 | 0.24 | 0.24 | 91 | 1006.4 |
| 20260506163140 | 62 | 148 | 4.3 | 6.1 | 0.13 | 0.23 | 0.23 | 92 | 1006.4 |
| 20260506162140 | 61 | 193 | 0.0 | 3.5 | 0.16 | 0.23 | 0.23 | 91 | 1006.7 |
| 20260506161140 | 61 | 153 | 0.0 | 5.2 | 0.16 | 0.22 | 0.22 | 90 | 1007.2 |
| 20260506160139 | 61 | 171 | 0.0 | 8.7 | 0.17 | 0.21 | 0.21 | 89 | 1007.5 |
| 20260506155139 | 61 | 167 | 0.0 | 7.8 | 0.15 | 0.19 | 0.19 | 89 | 1007.7 |
| 20260506154139 | 62 | 181 | 0.0 | 11.3 | 0.11 | 0.13 | 0.13 | 88 | 1007.8 |
| 20260506153140 | 62 | 175 | 0.0 | 6.1 | 0.09 | 0.10 | 0.10 | 88 | 1007.7 |
| 20260506151139 | 63 | 181 | 0.0 | 3.5 | 0.06 | 0.06 | 0.06 | 87 | 1007.8 |
| 20260506145139 | 64 | 177 | 0.0 | 4.3 | 0.04 | 0.04 | 0.04 | 83 | 1007.5 |
| 20260506144139 | 64 | 178 | 0.0 | 7.0 | 0.02 | 0.02 | 0.02 | 81 | 1007.7 |
| 20260506143139 | 65 | 188 | 0.0 | 7.8 | 0.01 | 0.01 | 0.01 | 78 | 1007.7 |
| 20260506142140 | 66 | 210 | 0.0 | 4.3 | 0.00 | 0.00 | 0.00 | 76 | 1007.8 |
| 20260506141139 | 67 | 200 | 0.0 | 7.8 | 0.00 | 0.00 | 0.00 | 74 | 1007.8 |
| 20260506140139 | 67 | 157 | 0.0 | 9.6 | 0.00 | 0.00 | 0.00 | 71 | 1007.6 |
| 20260506134140 | 66 | 196 | 0.9 | 11.3 | 0.00 | 0.00 | 0.00 | 74 | 1007.6 |
| 20260506132139 | 66 | 189 | 0.0 | 12.2 | 0.00 | 0.00 | 0.00 | 74 | 1007.8 |
| 20260506131139 | 66 | 192 | 0.0 | 11.3 | 0.00 | 0.00 | 0.00 | 73 | 1007.8 |
| 20260506125139 | 66 | 146 | 0.0 | 11.3 | 0.00 | 0.00 | 0.00 | 74 | 1007.9 |
| 20260506124139 | 66 | 207 | 0.0 | 8.7 | 0.00 | 0.00 | 0.00 | 75 | 1007.9 |
| 20260506123139 | 65 | 199 | 0.0 | 0.9 | 0.00 | 0.00 | 0.00 | 75 | 1007.9 |
| 20260506121139 | 65 | 193 | 0.0 | 10.4 | 0.00 | 0.00 | 0.00 | 75 | 1007.7 |
| 20260506120139 | 65 | 184 | 0.0 | 13.9 | 0.00 | 0.00 | 0.00 | 76 | 1007.8 |
| 20260506115139 | 65 | 189 | 0.0 | 6.1 | 0.00 | 0.00 | 0.00 | 76 | 1007.7 |
| 20260506114140 | 65 | 171 | 6.1 | 6.1 | 0.00 | 0.00 | 0.00 | 76 | 1007.8 |
| 20260506022137 | 72 | 200 | 0.0 | 7.0 | 0.00 | 0.00 | 0.00 | 50 | 1008.5 |
| 20260506021137 | 73 | 135 | 2.6 | 13.0 | 0.00 | 0.00 | 0.00 | 49 | 1008.4 |
| 20260506020137 | 73 | 151 | 0.0 | 11.3 | 0.00 | 0.00 | 0.00 | 48 | 1008.4 |
| 20260506015137 | 73 | 187 | 0.9 | 8.7 | 0.00 | 0.00 | 0.00 | 47 | 1008.3 |
| 20260506014137 | 74 | 147 | 0.0 | 12.2 | 0.00 | 0.00 | 0.00 | 47 | 1008.2 |
| 20260506013137 | 74 | 169 | 0.0 | 11.3 | 0.00 | 0.00 | 0.00 | 46 | 1007.9 |
| 20260506012137 | 74 | 207 | 0.0 | 13.0 | 0.00 | 0.00 | 0.00 | 45 | 1007.9 |
| 20260506011137 | 74 | 127 | 2.6 | 13.0 | 0.00 | 0.00 | 0.00 | 44 | 1007.8 |
| 20260506010137 | 75 | 192 | 0.0 | 11.3 | 0.00 | 0.00 | 0.00 | 44 | 1007.7 |
| 20260506005137 | 75 | 205 | 7.0 | 13.0 | 0.00 | 0.00 | 0.00 | 43 | 1007.7 |
| 20260506002137 | 76 | 190 | 3.5 | 12.2 | 0.00 | 0.00 | 0.00 | 44 | 1007.4 |
| 20260506001137 | 76 | 198 | 4.3 | 13.9 | 0.00 | 0.00 | 0.00 | 44 | 1007.3 |
| 20260506000137 | 76 | 152 | 3.5 | 13.0 | 0.00 | 0.00 | 0.00 | 44 | 1007.2 |
| 20260505235137 | 77 | 194 | 0.9 | 10.4 | 0.00 | 0.00 | 0.00 | 43 | 1007.1 |
| 20260505234137 | 77 | 149 | 0.0 | 9.6 | 0.00 | 0.00 | 0.00 | 41 | 1007.0 |
| 20260505233137 | 78 | 201 | 0.9 | 9.6 | 0.00 | 0.00 | 0.00 | 39 | 1007.0 |
| 20260505232137 | 78 | 213 | 1.7 | 7.8 | 0.00 | 0.00 | 0.00 | 38 | 1007.0 |
| 20260505231137 | 78 | 194 | 5.2 | 12.2 | 0.00 | 0.00 | 0.00 | 37 | 1007.0 |
| 20260505230137 | 79 | 198 | 1.7 | 9.6 | 0.00 | 0.00 | 0.00 | 36 | 1007.0 |
| 20260505225138 | 79 | 204 | 3.5 | 11.3 | 0.00 | 0.00 | 0.00 | 36 | 1006.7 |
| 20260505224137 | 80 | 218 | 3.5 | 14.8 | 0.00 | 0.00 | 0.00 | 35 | 1006.7 |
| 20260505222136 | 80 | 204 | 2.6 | 17.4 | 0.00 | 0.00 | 0.00 | 34 | 1006.7 |
| 20260505221138 | 80 | 196 | 7.8 | 14.8 | 0.00 | 0.00 | 0.00 | 34 | 1006.7 |
| 20260505220137 | 80 | 190 | 1.7 | 15.6 | 0.00 | 0.00 | 0.00 | 34 | 1006.6 |
| 20260505213137 | 81 | 211 | 0.9 | 17.4 | 0.00 | 0.00 | 0.00 | 32 | 1006.4 |
| 20260505211137 | 82 | 235 | 0.0 | 17.4 | 0.00 | 0.00 | 0.00 | 31 | 1006.3 |
| 20260505210137 | 81 | 207 | 3.5 | 20.9 | 0.00 | 0.00 | 0.00 | 30 | 1006.5 |
| 20260505204137 | 83 | 242 | 5.2 | 14.8 | 0.00 | 0.00 | 0.00 | 30 | 1006.5 |
| 20260505201136 | 83 | 217 | 2.6 | 20.9 | 0.00 | 0.00 | 0.00 | 30 | 1006.7 |
| 20260505200137 | 83 | 245 | 2.6 | 19.1 | 0.00 | 0.00 | 0.00 | 31 | 1006.7 |
| 20260505194137 | 82 | 284 | 2.6 | 14.8 | 0.00 | 0.00 | 0.00 | 30 | 1006.8 |
| 20260505193136 | 83 | 205 | 5.2 | 24.3 | 0.00 | 0.00 | 0.00 | 30 | 1006.8 |
| 20260505192137 | 84 | 197 | 0.0 | 19.1 | 0.00 | 0.00 | 0.00 | 31 | 1006.9 |
| 20260505191136 | 84 | 232 | 8.7 | 13.9 | 0.00 | 0.00 | 0.00 | 30 | 1007.1 |
| 20260505190137 | 83 | 211 | 2.6 | 13.0 | 0.00 | 0.00 | 0.00 | 32 | 1007.3 |